Location: Tyler Bend Campground
(35.9875°N, 92.7606°W)
Time: 13:24:03
(UTC-05:00)

CZ-2C R/B - Visible Passes

Search period start: 23 September 2017 00:00
Search period end: 03 October 2017 00:00
Orbit: 667 x 786 km, 98.1° (Epoch: 23 September)

Date Brightness Start Highest point End Pass type
(mag) Time Alt. Az. Time Alt. Az. Time Alt. Az.
23 Sep 4.6 06:09:57 10° NE 06:13:52 27° E 06:17:52 10° SSE visible
25 Sep 4.5 06:12:07 10° NE 06:16:10 29° E 06:20:16 10° SSE visible
27 Sep 4.4 06:14:19 10° NE 06:18:27 31° E 06:22:40 10° SSE visible
29 Sep 4.3 06:16:31 10° NNE 06:20:45 34° E 06:25:04 10° SSE visible
01 Oct 4.1 06:18:43 10° NNE 06:23:03 36° E 06:27:28 10° SSE visible
02 Oct 5.8 05:33:32 10° ENE 05:34:46 11° E 05:36:01 10° ESE visible
